CZ-6A DEB

Satellite information

Favourite Embed

Satellite Type and Status

DEBRISIN ORBIT

Key statistics

Satellite CZ-6A DEB at a glance.

Uptime

970

Days in orbit

Revolutions

≈ 14.2

Per day

Orbit

SSO

Sun Synchronous Orbit

Inclination

98.9

Latest

Satellite identification and parameters

Extended collection of information and parameters for CZ-6A DEB.

Object identification

Identified? True

Debris? True

Object name: CZ-6A DEB

International designator: 2022-151U

Object number (NORAD): 54277

Object ID (CCSDS): 54277

Country: PEOPLES REPUBLIC OF CHINA (PRC)

Current information (Y/N): Y

RCS size: SMALL

Orbital parameters

Period: 101.501 minutes

Inclination: 98.8503 deg

SMA: 7207.881 km

Apoapsis: 865.149 km

Periapsis: 794.343 km

RAAN: 208.6129 deg

Eccentricy: 0.0049117

Argument of periapsis: 104.2712 deg

Mean anomaly: 256.3925 deg

Mean motion: 14.18702676 rev/day

Mean motion (dot): 0.00000199 rev/day2

B* drag term: 0.00011579 1/REarth

Two-line elements (TLE)

Creation date: July 6, 2025, 6:05 p.m.

Reference frame: TEME

Reference center: EARTH

Epoch: July 6, 2025, 1:28 p.m. UTC

TLE line 0: 0 CZ-6A DEB

TLE line 1: 1 54277U 22151U 25187.56175738 .00000199 00000-0 11579-3 0 9996

TLE line 2: 2 54277 98.8503 208.6129 0049117 104.2712 256.3925 14.18702676136562

Live tracking on map

Real-time ground track for satellite CZ-6A DEB.

In-orbit conjunctions

A list of the most updated potential collisions computed for object CZ-6A DEB.

Target Orbit TCA Probability of collision Miss distance Type
METEOR 1-26 LEO 2024-12-31 04:17:45 0.0001023283 74.0 (m) PAYLOAD
FENGYUN 1C DEB SSO 2024-11-13 23:43:00 0.0004126114 79.0 (m) DEBRIS
COSMOS 1275 DEB LEO 2024-11-11 02:19:29 0.0006122943 988.0 (m) DEBRIS

Associated space launch

Chinese satellite reported for atmospheric/ocean/environmental/spatial parameter research purposes, details TBD.

CZ-6A DEB was lifted into orbit during the mission ‘Long March 6A | Yunhai 3’, on board a Long March 6A space rocket.

The launch took place on Nov. 11, 2022, 10:52 p.m. from Launch Complex 9A.

For more information about the launch, click the button.

Launch to space Long March 6A | Yunhai 3
Long March 6A | Yunhai 3

Agency: N/A

Status: Launch Successful

Launch date: Nov. 11, 2022, 10:52 p.m. UTC

Rocket: Long March 6A

Launch pad: Launch Complex 9A

Location: Taiyuan Satellite Launch Center, People's Republic of China

...

Latest news about this satellite

There are no fresh news available about this satellite. Check back as we update our databases every day.


Newsletter sign-up

Weekly statistics, charts and insights to help you stay on top of the space industry.